Total_Precipitation_Accumulation
0.75 0.70 0.58 0.38 0.28 0.21 0.20 0.14 0.22 0.16 0.16 0.04 0.02 0.01 0.01 0.02 0.07 0.19 0.37 0.34 0.46 0.58 0.58 0.55 0.43 0.31 0.31 0.24 0.18 0.15 0.12 0.08 0.08 0.13 0.03 0.01 0.01 0.01 0.01 0.00 0.01 0.01 0.01
0.70 0.59 0.41 0.36 0.40 0.20 0.15 0.11 0.07 0.06 0.04 0.01 0.01 0.01 0.01 0.01 0.06 0.19 0.39 0.52 0.47 0.49 0.57 0.62 0.65 0.46 0.34 0.31 0.27 0.23 0.15 0.12 0.06 0.10 0.10 0.03 0.02 0.02 0.02 0.02 0.02 0.01 0.01
0.96 0.68 0.55 0.40 0.33 0.20 0.11 0.09 0.06 0.03 0.02 0.02 0.01 0.00 0.00 0.00 0.03 0.18 0.30 0.55 0.58 0.56 0.52 0.62 0.60 0.56 0.47 0.33 0.26 0.27 0.23 0.18 0.15 0.10 0.10 0.06 0.04 0.03 0.02 0.02 0.03 0.02 0.01
0.78 0.89 0.70 0.62 0.51 0.26 0.16 0.09 0.05 0.03 0.01 0.01 0.01 0.01 0.01 0.00 0.04 0.10 0.18 0.34 0.49 0.60 0.64 0.66 0.72 0.62 0.50 0.39 0.32 0.29 0.29 0.25 0.18 0.16 0.12 0.10 0.08 0.07 0.07 0.06 0.05 0.03 0.03
0.61 1.06 1.13 0.80 0.63 0.63 0.50 0.27 0.06 0.02 0.01 0.01 0.01 0.01 0.01 0.00 0.02 0.06 0.14 0.21 0.42 0.53 0.57 0.65 0.57 0.64 0.63 0.53 0.43 0.37 0.30 0.24 0.20 0.17 0.16 0.14 0.13 0.14 0.14 0.15 0.14 0.10 0.11
0.49 0.78 1.13 1.62 0.94 0.89 0.98 0.93 0.39 0.05 0.03 0.01 0.01 0.02 0.03 0.02 0.05 0.04 0.08 0.12 0.15 0.23 0.31 0.42 0.63 0.67 0.69 0.71 0.66 0.57 0.49 0.34 0.25 0.18 0.17 0.17 0.14 0.13 0.18 0.24 0.23 0.20 0.21
0.33 0.69 0.80 0.95 1.37 0.96 1.03 1.02 0.97 0.24 0.04 0.04 0.03 0.03 0.03 0.03 0.06 0.07 0.09 0.07 0.11 0.08 0.13 0.25 0.37 0.70 0.75 0.58 0.63 0.63 0.59 0.49 0.33 0.26 0.20 0.17 0.13 0.13 0.15 0.20 0.18 0.19 0.18
0.28 0.43 0.62 0.49 0.91 1.21 0.87 0.80 0.72 0.31 0.08 0.06 0.05 0.04 0.03 0.04 0.07 0.10 0.12 0.04 0.10 0.14 0.10 0.10 0.15 0.29 0.61 0.66 0.56 0.57 0.51 0.43 0.38 0.28 0.22 0.21 0.19 0.16 0.13 0.14 0.14 0.13 0.14
0.24 0.43 0.61 0.72 0.78 0.87 1.09 0.86 0.70 0.39 0.10 0.05 0.04 0.04 0.03 0.04 0.07 0.10 0.10 0.02 0.03 0.06 0.12 0.13 0.11 0.07 0.19 0.31 0.26 0.27 0.30 0.31 0.29 0.27 0.21 0.17 0.16 0.14 0.11 0.08 0.07 0.08 0.09
0.18 0.27 0.41 0.57 0.80 1.01 1.10 1.07 0.88 0.65 0.30 0.15 0.10 0.07 0.10 0.05 0.11 0.13 0.13 0.06 0.09 0.06 0.06 0.13 0.19 0.14 0.18 0.15 0.11 0.12 0.17 0.21 0.23 0.21 0.16 0.11 0.08 0.08 0.06 0.04 0.07 0.07 0.08
0.22 0.18 0.22 0.33 0.52 0.68 0.82 0.90 0.98 0.92 0.68 0.42 0.32 0.26 0.21 0.24 0.26 0.25 0.25 0.17 0.19 0.18 0.15 0.15 0.19 0.20 0.14 0.14 0.11 0.08 0.11 0.09 0.11 0.09 0.10 0.11 0.08 0.05 0.03 0.02 0.02 0.02 0.02
0.22 0.20 0.20 0.21 0.28 0.41 0.56 0.63 0.66 0.73 0.82 0.75 0.55 0.50 0.45 0.48 0.49 0.44 0.33 0.26 0.24 0.17 0.20 0.18 0.22 0.21 0.16 0.13 0.09 0.12 0.09 0.04 0.01 0.01 0.02 0.01 0.01 0.02 0.03 0.03 0.01 0.01 0.00
0.13 0.15 0.17 0.16 0.19 0.24 0.30 0.37 0.46 0.52 0.54 0.57 0.53 0.47 0.48 0.49 0.53 0.51 0.49 0.45 0.38 0.26 0.26 0.29 0.28 0.18 0.11 0.10 0.09 0.05 0.01 0.00 0.00 0.00 0.00 0.01 0.01 0.00 0.00 0.00 0.00 0.00 0.00
0.05 0.08 0.12 0.13 0.14 0.15 0.15 0.19 0.23 0.31 0.38 0.46 0.49 0.47 0.45 0.39 0.38 0.37 0.32 0.29 0.27 0.26 0.27 0.23 0.18 0.13 0.10 0.08 0.06 0.03 0.02 0.01 0.01 0.02 0.02 0.01 0.01 0.01 0.00 0.00 0.00 0.00 0.00
0.03 0.05 0.07 0.09 0.12 0.13 0.14 0.16 0.16 0.20 0.19 0.22 0.28 0.31 0.34 0.38 0.43 0.37 0.32 0.28 0.27 0.26 0.25 0.25 0.25 0.23 0.21 0.19 0.15 0.13 0.10 0.07 0.07 0.06 0.05 0.04 0.04 0.03 0.02 0.02 0.01 0.01 0.01
0.01 0.01 0.01 0.01 0.02 0.03 0.03 0.05 0.06 0.08 0.06 0.05 0.06 0.07 0.10 0.13 0.12 0.11 0.11 0.10 0.09 0.08 0.07 0.09 0.11 0.11 0.10 0.09 0.08 0.08 0.07 0.06 0.05 0.04 0.03 0.02 0.02 0.01 0.01 0.01 0.00 0.00 0.00
0.00 0.00 0.00 0.00 0.00 0.01 0.00 0.00 0.01 0.02 0.02 0.03 0.02 0.02 0.02 0.01 0.00 0.00 0.00 0.00 0.00 0.00 0.01 0.01 0.02 0.02 0.02 0.02 0.03 0.03 0.04 0.04 0.04 0.03 0.03 0.02 0.02 0.01 0.01 0.01 0.00 0.00 0.00
0.00 0.00 0.00 0.00 0.00 0.00 0.00 0.00 0.00 0.00 0.00 0.01 0.02 0.01 0.00 0.00 0.00 0.00 0.00 0.00 0.00 0.00 0.00 0.00 0.00 0.00 0.00 0.00 0.00 0.00 0.00 0.00 0.00 0.00 0.00 0.00 0.00 0.00 0.00 0.00 0.00 0.00 0.00
0.00 0.00 0.00 0.00 0.00 0.00 0.00 0.00 0.00 0.00 0.00 0.00 0.00 0.00 0.00 0.00 0.00 0.00 0.00 0.00 0.00 0.00 0.00 0.00 0.00 0.00 0.00 0.00 0.00 0.00 0.00 0.00 0.00 0.00 0.00 0.00 0.00 0.00 0.00 0.00 0.00 0.00 0.00
0.00 0.00 0.00 0.00 0.00 0.00 0.00 0.00 0.00 0.00 0.00 0.00 0.00 0.00 0.00 0.00 0.00 0.00 0.00 0.00 0.00 0.00 0.00 0.00 0.00 0.00 0.00 0.00 0.00 0.00 0.00 0.00 0.00 0.00 0.00 0.00 0.00 0.00 0.00 0.00 0.00 0.00 0.00
0.00 0.00 0.00 0.00 0.00 0.00 0.00 0.00 0.00 0.00 0.00 0.00 0.00 0.00 0.00 0.00 0.00 0.00 0.00 0.00 0.00 0.00 0.00 0.00 0.00 0.00 0.00 0.00 0.00 0.00 0.00 0.00 0.00 0.00 0.00 0.00 0.00 0.00 0.00 0.00 0.00 0.00 0.00
0.00 0.00 0.00 0.00 0.00 0.00 0.00 0.00 0.00 0.00 0.00 0.00 0.00 0.00 0.00 0.00 0.00 0.00 0.00 0.00 0.00 0.00 0.00 0.00 0.00 0.00 0.00 0.00 0.00 0.00 0.00 0.00 0.00 0.00 0.00 0.00 0.00 0.00 0.00 0.00 0.00 0.00 0.00
0.00 0.00 0.00 0.00 0.00 0.00 0.00 0.00 0.00 0.00 0.00 0.00 0.00 0.00 0.00 0.00 0.00 0.00 0.00 0.00 0.00 0.00 0.00 0.00 0.00 0.00 0.00 0.00 0.00 0.00 0.00 0.00 0.00 0.00 0.00 0.00 0.00 0.00 0.00 0.00 0.00 0.00 0.00
0.00 0.00 0.00 0.00 0.00 0.00 0.00 0.00 0.00 0.00 0.00 0.00 0.00 0.00 0.00 0.00 0.00 0.00 0.00 0.00 0.00 0.00 0.00 0.00 0.00 0.00 0.00 0.00 0.00 0.00 0.00 0.00 0.00 0.00 0.00 0.00 0.00 0.00 0.00 0.00 0.00 0.00 0.00
0.00 0.00 0.00 0.00 0.00 0.00 0.01 0.01 0.01 0.01 0.01 0.00 0.00 0.00 0.00 0.00 0.00 0.00 0.00 0.00 0.00 0.00 0.00 0.00 0.00 0.00 0.00 0.00 0.00 0.00 0.00 0.00 0.00 0.00 0.00 0.00 0.00 0.00 0.00 0.00 0.00 0.00 0.00
0.00 0.00 0.00 0.00 0.01 0.01 0.01 0.02 0.02 0.01 0.01 0.01 0.01 0.01 0.01 0.01 0.00 0.00 0.00 0.00 0.00 0.00 0.00 0.00 0.00 0.00 0.00 0.00 0.00 0.00 0.00 0.00 0.00 0.00 0.00 0.00 0.00 0.00 0.00 0.00 0.00 0.00 0.00